Weather History for Land O' Lakes, WI

Change the Weather History Date:

Tuesday, July 2, 2013

  Actual Average (KEGV) Record (KEGV)
Temperature  
Mean Temperature 58 °F -  
Max Temperature 77 °F 75 °F 87 °F (2012)
Min Temperature 39 °F 53 °F 40 °F (1980)
Degree Days  
Heating Degree Days 7    
Growing Degree Days 8 (Base 50)    
Moisture  
Dew Point 42 °F    
Average Humidity 62    
Maximum Humidity 99    
Minimum Humidity 23    
Precipitation  
Precipitation 0.00 in - - ()
Sea Level Pressure  
Sea Level Pressure 30.18 in    
Wind  
Wind Speed 1 mph (ENE)    
Max Wind Speed 10 mph    
Max Gust Speed -    
Visibility 10 miles    
Events      
Averages and records for this station are not official NWS values.
T = Trace of Precipitation, MM = Missing Value Source: NWS Daily Summary

Daily Weather History Graph

Daily Weather History Graph

Search for Another Location

Airport:

Trip Planner

Search our weather history database for the weather conditions in past years. The results will help you decide how hot, cold, wet, or windy it might be!

Date:

Astronomy

Jul. 02, 2013 Rise Set
Actual Time 5:10 AM CDT 8:51 PM CDT
Civil Twilight 4:31 AM CDT 9:29 PM CDT
Nautical Twilight 3:40 AM CDT 10:21 PM CDT
Astronomical Twilight 2:29 AM CDT 11:31 PM CDT
Moon 1:22 AM CDT (7/2) 3:57 PM CDT (7/2)
Length of Visible Light 16h 58m
Length of Day
15h 41m
Waning Crescent, 26% of the Moon is Illuminated
Jul 2
Waning Crescent
Jul 8
New
Jul 15
First Quarter
Jul 22
Full
Jul 29
Last Quarter

Hourly Weather History & Observations

Time (CDT) Temp. Dew Point Humidity Pressure Visibility Wind Dir Wind Speed Gust Speed Precip Events Conditions
12:15 AM 46.4 °F 44.2 °F 92% 30.22 in 10.0 mi Calm Calm - N/A   Clear
12:35 AM 45.1 °F 43.7 °F 95% 30.22 in 10.0 mi Calm Calm - N/A   Clear
12:55 AM 44.8 °F 43.5 °F 95% 30.22 in 10.0 mi Calm Calm - N/A   Clear
1:15 AM 43.7 °F 42.6 °F 96% 30.22 in 10.0 mi Calm Calm - N/A   Clear
1:35 AM 43.5 °F 42.3 °F 95% 30.22 in 10.0 mi Calm Calm - N/A   Clear
2:15 AM 42.4 °F 41.5 °F 97% 30.22 in 10.0 mi Calm Calm - N/A   Clear
2:35 AM 41.9 °F 41.0 °F 97% 30.22 in 10.0 mi Calm Calm - N/A   Clear
2:55 AM 41.4 °F 40.6 °F 97% 30.21 in 10.0 mi Calm Calm - N/A   Clear
3:15 AM 41.2 °F 40.5 °F 97% 30.21 in 10.0 mi Calm Calm - N/A   Clear
3:35 AM 41.0 °F 40.3 °F 97% 30.21 in 10.0 mi Calm Calm - N/A   Clear
3:55 AM 41.0 °F 40.3 °F 97% 30.21 in 4.0 mi Calm Calm - N/A   Clear
4:15 AM 40.1 °F 39.4 °F 97% 30.21 in 10.0 mi Calm Calm - N/A   Clear
4:35 AM 39.9 °F 39.6 °F 99% 30.22 in 10.0 mi Calm Calm - N/A   Clear
4:55 AM 39.6 °F 39.2 °F 99% 30.22 in 10.0 mi Calm Calm - N/A   Clear
5:15 AM 39.2 °F 38.7 °F 98% 30.22 in 10.0 mi Calm Calm - N/A   Clear
5:35 AM 39.2 °F 39.0 °F 99% 30.22 in 10.0 mi Calm Calm - N/A   Clear
5:55 AM 40.8 °F 40.6 °F 99% 30.22 in 10.0 mi Calm Calm - N/A   Clear
6:15 AM 43.9 °F 43.7 °F 99% 30.22 in 10.0 mi Calm Calm - N/A   Clear
6:35 AM 47.1 °F 46.6 °F 98% 30.22 in 10.0 mi Calm Calm - N/A   Clear
6:55 AM 50.7 °F 46.0 °F 84% 30.22 in 10.0 mi Calm Calm - N/A   Clear
7:35 AM 55.8 °F 45.5 °F 68% 30.22 in 10.0 mi Calm Calm - N/A   Clear
7:55 AM 58.6 °F 46.4 °F 64% 30.22 in 10.0 mi Calm Calm - N/A   Scattered Clouds
8:15 AM 60.1 °F 45.0 °F 57% 30.22 in - Calm Calm - N/A   Unknown
8:55 AM 64.2 °F 42.4 °F 45% 30.21 in 10.0 mi Calm Calm - N/A   Clear
9:15 AM 65.3 °F 41.7 °F 42% 30.21 in 10.0 mi Calm Calm - N/A   Clear
9:35 AM 66.9 °F 41.7 °F 40% 30.21 in 10.0 mi Calm Calm - N/A   Clear
9:55 AM 68.0 °F 36.5 °F 31% 30.21 in 10.0 mi SE 4.6 mph - N/A   Clear
10:15 AM 68.2 °F 39.7 °F 35% 30.20 in 10.0 mi Calm Calm - N/A   Clear
10:35 AM 68.9 °F 41.5 °F 37% 30.20 in 10.0 mi Calm Calm - N/A   Clear
10:55 AM 69.6 °F 42.3 °F 37% 30.20 in 10.0 mi Calm Calm - N/A   Clear
11:15 AM 69.8 °F 41.4 °F 36% 30.20 in 10.0 mi East 3.5 mph - N/A   Clear
11:35 AM 70.5 °F 42.1 °F 36% 30.19 in 10.0 mi NNW 4.6 mph - N/A   Clear
11:55 AM 71.2 °F 41.4 °F 34% 30.19 in 10.0 mi WNW 3.5 mph - N/A   Clear
12:35 PM 72.7 °F 41.5 °F 32% 30.19 in 10.0 mi Calm Calm - N/A   Clear
12:55 PM 74.1 °F 42.3 °F 32% 30.18 in 10.0 mi SE 5.8 mph - N/A   Clear
1:15 PM 73.9 °F 40.8 °F 30% 30.17 in 10.0 mi East 8.1 mph - N/A   Clear
1:35 PM 73.9 °F 39.9 °F 29% 30.16 in 10.0 mi East 6.9 mph - N/A   Clear
1:55 PM 74.5 °F 40.1 °F 29% 30.16 in 10.0 mi Calm Calm - N/A   Clear
2:35 PM 75.2 °F 34.9 °F 23% 30.15 in 10.0 mi South 4.6 mph - N/A   Clear
3:15 PM 77.2 °F 39.6 °F 26% 30.14 in 10.0 mi East 4.6 mph - N/A   Clear
3:35 PM 76.3 °F 38.5 °F 26% 30.14 in 10.0 mi Calm Calm - N/A   Clear
3:55 PM 76.6 °F 39.0 °F 26% 30.13 in 10.0 mi North 6.9 mph - N/A   Clear
4:15 PM 77.0 °F 39.2 °F 26% 30.13 in 10.0 mi ENE 3.5 mph - N/A   Clear
4:55 PM 76.8 °F 39.2 °F 26% 30.12 in 10.0 mi ESE 6.9 mph - N/A   Clear
5:15 PM 77.0 °F 38.5 °F 25% 30.12 in 10.0 mi SSW 3.5 mph - N/A   Clear
5:35 PM 76.5 °F 38.5 °F 25% 30.11 in 10.0 mi SE 4.6 mph - N/A   Clear
6:55 PM 75.6 °F 40.5 °F 28% 30.11 in 10.0 mi Calm Calm - N/A   Scattered Clouds
7:15 PM 73.0 °F 46.0 °F 38% 30.11 in 10.0 mi NNE 10.4 mph - N/A   Clear
7:35 PM 71.8 °F 46.2 °F 40% 30.12 in 10.0 mi NNE 6.9 mph - N/A   Clear
7:55 PM 70.7 °F 45.3 °F 40% 30.12 in 10.0 mi NNE 5.8 mph - N/A   Clear
8:15 PM 68.9 °F 45.0 °F 42% 30.12 in 10.0 mi NNE 5.8 mph - N/A   Clear
8:35 PM 67.3 °F 45.0 °F 45% 30.12 in 10.0 mi NNE 4.6 mph - N/A   Clear
8:55 PM 65.5 °F 44.1 °F 46% 30.12 in 10.0 mi NNE 4.6 mph - N/A   Clear
9:15 PM 63.9 °F 44.6 °F 50% 30.13 in 10.0 mi NNE 4.6 mph - N/A   Clear
9:35 PM 60.6 °F 46.4 °F 59% 30.13 in 10.0 mi Calm Calm - N/A   Clear
9:55 PM 54.1 °F 48.0 °F 80% 30.14 in 10.0 mi Calm Calm - N/A   Clear
10:15 PM 52.7 °F 48.2 °F 85% 30.13 in 10.0 mi Calm Calm - N/A   Clear
10:55 PM 50.2 °F 47.3 °F 90% 30.13 in 10.0 mi Calm Calm - N/A   Clear
11:15 PM 48.9 °F 46.9 °F 93% 30.14 in 10.0 mi Calm Calm - N/A   Clear
11:35 PM 48.9 °F 46.6 °F 92% 30.14 in 10.0 mi Calm Calm - N/A   Clear
11:55 PM 47.7 °F 45.9 °F 93% 30.14 in 10.0 mi Calm Calm - N/A   Clear